Погода в Венгерке

Россия / Иркутская область     55°47′54″N   97°16′06″E
темп.,
°C
ветер,
м/с
пор.,
м/с
влажн.,
%
обл.,
%
осадки,
мм/ч
давл.,
гПа
погр.,
м
19 апреля, пн
пн1923:00−4ю2695100 0.0 101798
02:00−4ююв2395100 0.0 101554
05:00−4юв2592100 0.0 101191
08:00−2юв3883100 0.0 1006211
11:00+2ююв31283100 0.9 1000701
14:00+7юз61682100 1.3 9951545
17:00+1з1026679 4.1 10012011
20:00−6з102179100 4.1 10101510
20 апреля, вт
вт2023:00−7з91877100 0.1 10151388
02:00−8з71678100 0.1 10171333
05:00−9з61474100 0.0 10171247
08:00−9з6146813 0.0 10191172
11:00−6з7114937 0.0 10191500
14:00−3з61039100 0.0 10182140
17:00−2з61041100 0.0 10172313
20:00−4з5116038 0.0 10191446
21 апреля, ср
ср2123:00−6з511685 0.0 10211067
02:00−7зюз410719 0.0 1021894
05:00−8зюз511745 0.0 1022815
08:00−7зюз510685 0.0 1024998
11:00−3з6847100 0.0 10241636
14:00−1зсз5640100 0.0 10241956
17:00−1зсз4540100 0.0 10241837
20:00−3сз235554 0.0 102676
22 апреля, чт
чт2223:00−6св00835 0.0 102910
02:00−7юв118818 0.0 103010
05:00−8в119267 0.0 103111
08:00−5всв1273100 0.0 1032160
11:000всв234970 0.0 10321105
14:00+2св3240100 0.0 10321898
17:00+3св334088 0.0 10331718
20:000ссв24605 0.0 103669
23 апреля, пт
пт2323:00−3ссв11795 0.0 103915
02:00−3св01825 0.0 104110
05:00−4ссв11865 0.0 104210
08:00−2св12755 0.0 1044149
11:00+3всв33505 0.0 10441221
14:00+5всв334137 0.0 10431726
17:00+5всв454256 0.0 10421722
20:00+2всв39645 0.0 1043305